PAL2531 RPLL-RPVE

Flight info

Callsign PAL2531
Flight time N/A
Altitude 25000
Route VERDE2R VERDE W24 TAPER TAPER7B
Aircraft A321/M-SDE3FGHIRWY/LB1

Departure

Time 2026-05-06 11:03
Airport Ninoy Aquino International Airport (RPLL)

Arrival

Time N/A
Airport Godofredo P. Ramos Airport (RPVE)
Time Latitude Longitude Altitude Speed Heading
2026-05-06 10:43 14.50897 121.01363 84 ft 0 kts 329°
2026-05-06 10:53 14.50890 121.01367 84 ft 2 kts 329°
2026-05-06 10:53 14.50877 121.01375 84 ft 2 kts 329°
2026-05-06 10:53 14.50864 121.01383 84 ft 2 kts 329°
2026-05-06 10:54 14.50856 121.01389 84 ft 2 kts 329°
2026-05-06 10:54 14.50821 121.01415 84 ft 2 kts 293°
2026-05-06 10:55 14.50817 121.01430 84 ft 2 kts 266°
2026-05-06 10:55 14.50820 121.01443 84 ft 0 kts 243°
2026-05-06 10:55 14.50820 121.01441 84 ft 2 kts 244°
2026-05-06 10:55 14.50800 121.01405 84 ft 5 kts 240°
2026-05-06 10:56 14.50788 121.01383 84 ft 1 kts 240°
2026-05-06 10:56 14.50787 121.01382 84 ft 0 kts 240°
2026-05-06 10:58 14.50785 121.01379 84 ft 1 kts 240°
2026-05-06 10:58 14.50772 121.01354 84 ft 8 kts 240°
2026-05-06 10:58 14.50695 121.01318 84 ft 16 kts 195°
2026-05-06 10:58 14.50619 121.01231 84 ft 16 kts 239°
2026-05-06 10:59 14.50564 121.01129 84 ft 16 kts 240°
2026-05-06 10:59 14.50508 121.01029 84 ft 15 kts 240°
2026-05-06 10:59 14.50453 121.00930 84 ft 15 kts 240°
2026-05-06 10:59 14.50399 121.00833 84 ft 15 kts 240°
2026-05-06 11:00 14.50346 121.00738 84 ft 15 kts 240°
2026-05-06 11:00 14.50275 121.00610 84 ft 15 kts 240°
2026-05-06 11:00 14.50240 121.00549 84 ft 15 kts 240°
2026-05-06 11:00 14.50203 121.00481 84 ft 9 kts 241°
2026-05-06 11:01 14.50171 121.00422 84 ft 9 kts 240°
2026-05-06 11:01 14.50128 121.00369 84 ft 10 kts 199°
2026-05-06 11:01 14.50062 121.00391 84 ft 10 kts 150°
2026-05-06 11:01 14.50029 121.00450 84 ft 10 kts 73°
2026-05-06 11:02 14.50042 121.00476 84 ft 0 kts 59°
2026-05-06 11:02 14.50042 121.00477 84 ft 0 kts 59°
2026-05-06 11:02 14.50136 121.00645 84 ft 66 kts 60°
2026-05-06 11:02 14.50498 121.01297 84 ft 139 kts 60°
2026-05-06 11:03 14.51048 121.02285 409 ft 167 kts 60°
2026-05-06 11:03 14.51629 121.03329 1105 ft 172 kts 60°